Location: Red Bud (historical)
(37.7759°N, 88.4053°W)
Time: 19:31:59
(UTC+00:00)

Tiangong - Pass Details

Date: 22 June 2021
Orbit: 373 x 385 km, 41.5° (Epoch: 04 August)

Event Time Altitude Azimuth Distance (km) Brightness Sun altitude
Exits shadow 08:30:44 79° 151° (SSE) 389 0.9 -18.8°
Drops below altitude 10° 08:33:51 10° 72° (ENE) 1,396 4.7 -18.4°
Sets 08:35:56 0° 71° (ENE) 2,253 5.9 -18.1°
